This demonstration page uses our WeatherBlox Daily Observations layout. Learn more.

Left ArrowRight Arrow

Hourly Observations for July 31, 2020

Temp ( °F °C ) Dew Point ( °F °C ) Humidity (%) Winds ( mph kmh ) Pressure ( in mb ) Visibility ( mi km ) Precip ( " mm )
12:53 am 00:53 Clear 67 19.4 63 17.2 87 87 N 3 6 30.08 1019 10 16 0.00 0.00
1:53 am 01:53 Clear 66 18.9 63 17.2 90 90 NNW 5 7 30.07 1018 10 16 0.00 0.00
2:53 am 02:53 Mostly Clear 65 18.3 63 17.2 93 93 NNW 5 7 30.07 1018 10 16 0.00 0.00
3:53 am 03:53 Clear 65 18.3 62 16.7 90 90 NNW 5 7 30.06 1018 10 16 0.00 0.00
4:53 am 04:53 Clear 64 17.8 61 16.1 90 90 NNW 5 7 30.06 1018 10 16 0.00 0.00
5:53 am 05:53 Clear 63 17.2 60 15.6 90 90 NNW 5 7 30.06 1018 10 16 0.00 0.00
6:53 am 06:53 Sunny 64 17.8 59 15 84 84 N 5 7 30.07 1018 10 16 0.00 0.00
7:53 am 07:53 Sunny 64 17.8 60 15.6 87 87 N 5 7 30.08 1019 10 16 0.00 0.00
8:53 am 08:53 Sunny 68 20 61 16.1 78 78 N 7 11 30.09 1019 10 16 0.00 0.00
9:53 am 09:53 Sunny 71 21.7 60 15.6 68 68 NNE 7 11 30.09 1019 10 16 0.00 0.00
10:53 am 10:53 Sunny 73 22.8 60 15.6 64 64 N 7 11 30.08 1019 10 16 0.00 0.00
11:53 am 11:53 Partly Cloudy 75 23.9 61 16.1 62 62 NNE 6 9 30.08 1019 10 16 0.00 0.00
12:19 pm 12:19 Mostly Cloudy 76 24.4 61 16.1 60 60 N 7 11 30.03 1017 10 16 0.00 0.00
12:27 pm 12:27 Partly Cloudy 76 24.4 60 15.6 58 58 N 7 11 30.03 1017 10 16 0.00 0.00
12:53 pm 12:53 Mostly Sunny 76 24.4 60 15.6 58 58 NE 8 13 30.07 1018 10 16 0.00 0.00
1:53 pm 13:53 Mostly Sunny 78 25.6 59 15 52 52 N 7 11 30.06 1018 10 16 0.00 0.00
2:53 pm 14:53 Mostly Cloudy 78 25.6 60 15.6 54 54 VRB 5 7 30.05 1018 10 16 0.00 0.00
3:53 pm 15:53 Mostly Cloudy 79 26.1 61 16.1 54 54 NNE 8 13 30.04 1017 10 16 0.00 0.00
4:53 pm 16:53 Partly Cloudy 78 25.6 61 16.1 56 56 ENE 8 13 30.04 1017 10 16 0.00 0.00
5:53 pm 17:53 Sunny 79 26.1 61 16.1 54 54 ENE 8 13 30.03 1017 10 16 0.00 0.00
6:53 pm 18:53 Sunny 78 25.6 61 16.1 56 56 ENE 7 11 30.02 1017 10 16 0.00 0.00
7:53 pm 19:53 Sunny 75 23.9 61 16.1 62 62 E 6 9 30.02 1017 10 16 0.00 0.00
8:53 pm 20:53 Clear 71 21.7 61 16.1 71 71 E 3 6 30.02 1017 10 16 0.00 0.00
9:53 pm 21:53 Clear 70 21.1 60 15.6 71 71 Calm 30.03 1017 10 16 0.00 0.00
10:53 pm 22:53 Clear 66 18.9 61 16.1 84 84 Calm 30.04 1017 10 16 0.00 0.00
11:53 pm 23:53 Clear 65 18.3 60 15.6 84 84 Calm 30.05 1018 10 16 0.00 0.00

Powered by AerisWeather